Regional Weather Roundup
Issued by NWS Nashville, TN

Home | Current Version | Previous Version | Text Only | Print | Product List | Glossary On
Versions: 1 2 3 4 5 6 7 8 9 10 11 12 13 14 15 16 17 18 19 20 21 22 23 24 25 26 27 28 29 30 31 32 33 34 35 36 37 38 39 40 41 42 43 44 45 46 47 48 49 50
000
ASUS44 KOHX 212115
RWROHX
MIDDLE TENNESSEE HOURLY WEATHER ROUNDUP
NATIONAL WEATHER SERVICE NASHVILLE TN
400 PM CDT TUE OCT 21 2014

NOTE: "FAIR" INDICATES FEW OR NO CLOUDS BELOW 12,000 FEET WITH
NO SIGNIFICANT WEATHER AND/OR OBSTRUCTIONS TO VISIBILITY.

* THESE REPORTS ARE NOT UNDER NWS QUALITY CONTROL AND MAY NOT
  REPORT WEATHER SUCH AS PRECIPITATION AND FOG.


TNZ005>011-023>034-057-059-062>066-078-080-212200
...NORTHERN MIDDLE TENNESSEE...

CITY           SKY/WX    TMP DP  RH WIND       PRES   REMARKS
CLARKSVILLE    SUNNY     70  45  40 N13       30.04S
CROSSVILLE     MOSUNNY   63  42  46 NW12      30.03S
NASHVILLE      MOSUNNY   72  45  37 N10       30.03S
SMYRNA         MOSUNNY   72  47  40 N8        30.03S
SPARTA         PTSUNNY   68  48  49 N6        30.02S
$$
TNZ056-058-060-061-075>077-079-093>097-212200
...SOUTHERN MIDDLE TENNESSEE...

CITY           SKY/WX    TMP DP  RH WIND       PRES   REMARKS
COLUMBIA       SUNNY     72  46  40 N7        30.01S
FAYETTEVILLE   SUNNY     70  45  40 NW8       30.02S
MCMINNVILLE    SUNNY     68  48  49 CALM      30.02S
SHELBYVILLE    SUNNY     72  48  43 NW9       30.03S
TULLAHOMA      SUNNY     70  43  37 NW9       30.03S
WINCHESTER     SUNNY     70  46  43 N10       30.02S
$$


...KEY TO REMARKS...
VSB - VISIBILITY IN MILES
WCI - WIND CHILL INDEX
HX  - HEAT INDEX




USA.gov is the U.S. government's official web portal to all federal, state and local government web resources and services.